Location: Newark
(37.7892°N, 97.1083°W)
Time: 13:37:36
(UTC+00:00)

LightSail 2 - Pass Details

Date: 09 December 2019
Orbit: 704 x 719 km, 24.0° (Epoch: 24 January)

Event Time Altitude Azimuth Distance (km) Brightness Sun altitude
Rises 00:29:55 0° 246° (WSW) 3,098 10.3 -15.5°
Reaches altitude 10° 00:33:31 10° 221° (SW) 2,173 8.5 -16.2°
Maximum altitude 00:36:04 14° 191° (S) 1,920 7.7 -16.7°
Drops below altitude 10° 00:38:37 10° 161° (SSE) 2,166 7.6 -17.1°
Enters shadow 00:41:19 - 140° (SE) 2,818 8.0 -17.7°
